Flag for U.S.A. Weather past 2 weeks in Olympia, Washington, U.S.A.

Now
56 °F

Mostly cloudy.


Feels Like: 54 °F
Forecast: 39 / 56 °F
Wind: 8 mph from East

Location: Olympia Airport

Current Time: Apr 25, 2015 at 3:18:05 PM

Latest Report: Apr 25, 2015 at 2:54 PM


Visibility: 10 mi

Pressure: 29.99 "Hg

Humidity: 53%

Dew point: 39 °F

Location of OlympiaLocation

Historic Weather in Olympia — Graph

°F

Olympia temperature yesterday

Maximum temperature yesterday: 53 °F (at 2:54 PM)
Minimum temperature yesterday: 40 °F (at 5:54 AM)
Average temperature yesterday: 46 °F

Past Weeks' High & Low Weather Summary

 TemperatureHumidityPressure
High77 °F (Apr 20, 4:54 PM)100% (Apr 25, 7:02 AM)30.56 "Hg (Apr 25, 7:02 AM)
Low27 °F (Apr 15, 5:54 AM)25% (Apr 18, 3:54 PM)29.79 "Hg (Apr 24, 3:54 AM)
Average48 °F71%30.10 "Hg
* Reported Apr 10 12:54 PM — Apr 25 12:54 PM, Olympia, Weather by CustomWeather, © 2015

Note: Actual official high and low records may vary slightly from our data, if they occured in-between our weather recording intervals... More about our weather records

Advertising

Olympia weather history for previous 24 hours

 ConditionsComfort  
Time TempWeatherWind HumidityBarometerVisibility
12:54 PM
Sat, Apr 25
56 °FPartly sunny.6 mph53%29.98 "Hg10 mi
11:54 AM52 °FPartly sunny.3 mph57%30.00 "Hg10 mi
10:54 AM52 °FPartly sunny.No wind61%29.99 "Hg10 mi
9:54 AM48 °FPartly sunny.No wind68%29.98 "Hg10 mi
8:54 AM43 °FScattered clouds.5 mph89%29.98 "Hg10 mi
7:54 AM40 °FFog.3 mph93%29.98 "Hg3 mi
7:02 AM38 °FFog.No wind100%29.95 "Hg0 mi
6:54 AM38 °FFog.No wind93%29.95 "Hg1 mi
5:54 AM37 °FClear.No wind96%29.93 "Hg10 mi
4:54 AM38 °FPassing clouds.6 mph93%29.93 "Hg10 mi
3:54 AM41 °FClear.7 mph89%29.91 "Hg10 mi
2:54 AM43 °FMostly cloudy.8 mph89%29.91 "Hg10 mi
1:54 AM44 °FMostly cloudy.7 mph85%29.91 "Hg10 mi
12:54 AM45 °FOvercast.6 mph86%29.90 "Hg10 mi
11:54 PM
Fri, Apr 24
45 °FOvercast.5 mph86%29.89 "Hg10 mi
10:54 PM46 °FOvercast.7 mph79%29.89 "Hg10 mi
9:54 PM46 °FOvercast.8 mph77%29.89 "Hg10 mi
8:54 PM46 °FOvercast.7 mph77%29.87 "Hg10 mi
7:54 PM49 °FPassing clouds.9 mph66%29.86 "Hg10 mi
6:54 PM51 °FPartly sunny.10 mph66%29.85 "Hg10 mi
5:54 PM53 °FMostly cloudy.12 mph59%29.84 "Hg10 mi
4:54 PM52 °FLight rain. Broken clouds.8 mph72%29.83 "Hg10 mi
3:54 PM50 °FRain. Partly sunny.10 mph68%29.84 "Hg6 mi
Weather by CustomWeather, © 2015

See weather overviewHow to use our weather pages